Location: Lafig�re
(44.4503°N, 4.0357°E)
Time: 08:11:47
(UTC+00:00)

deb Explorer IX - Pass Details

Date: 30 January 2021
Orbit: 537 x 1103 km, 38.8° (Epoch: 23 February)

Event Time Altitude Azimuth Distance (km) Brightness Sun altitude
Rises 19:16:42 0° 273° (W) 3,710 ? -26.2°
Reaches altitude 10° 19:19:49 10° 264° (W) 2,673 ? -26.7°
Maximum altitude 19:25:16 30° 205° (SSW) 1,493 ? -27.7°
Enters shadow 19:26:40 27° 180° (S) 1,557 ? -28.0°
